WetterOnline ( http://www.wetteronline.de )

Wetter aktuell Gelsenkirchen

Aktuelles Wetter: Essen (161m)

6-stündlich | Neueste Meldungen
Ortszeit Temperatur Wetter
Sa, 20.10. 8:00 6.1° C wolkig
Sa, 20.10. 2:00 8.6° C fast wolkenlos
Fr, 19.10. 20:00 12.2° C wolkig
Fr, 19.10. 14:00 13.3° C wolkig
Fr, 19.10. 8:00 9.7° C bedeckt
Fr, 19.10. 2:00 11.7° C bedeckt
Do, 18.10. 20:00 13.2° C bewölkt
Do, 18.10. 14:00 15.6° C wolkig
Ortszeit Temperatur Wetter
Sa, 20.10. 12:00 11.7° C wolkig
Sa, 20.10. 11:50 11.7° C bedeckt
Sa, 20.10. 11:40 11.1° C wolkig
Sa, 20.10. 11:30 11.5° C bedeckt
Sa, 20.10. 11:20 11.5° C bedeckt
Sa, 20.10. 11:10 11.1° C bedeckt
Sa, 20.10. 11:00 10.7° C wolkig
Sa, 20.10. 10:30 9.9° C leicht bewölkt
Sa, 20.10. 10:00 8.2° C wolkig
Sa, 20.10. 9:30 7.5° C bedeckt
Sa, 20.10. 9:00 7.0° C bedeckt
Ortszeit Relative Feuchte Sichtweite
Sa, 20.10. 8:00 94% 8 km
Sa, 20.10. 2:00 86% 21 km
Fr, 19.10. 20:00 80% 13 km
Fr, 19.10. 14:00 74% 15 km
Fr, 19.10. 8:00 93% 7 km
Fr, 19.10. 2:00 84% 21 km
Do, 18.10. 20:00 88% 22 km
Do, 18.10. 14:00 66% 65 km
Ortszeit Relative Feuchte Sichtweite
Sa, 20.10. 12:00 61% 30 km
Sa, 20.10. 11:50 61% -
Sa, 20.10. 11:40 62% -
Sa, 20.10. 11:30 65% 26 km
Sa, 20.10. 11:20 65% -
Sa, 20.10. 11:10 66% -
Sa, 20.10. 11:00 78% 9 km
Sa, 20.10. 10:30 80% 12 km
Sa, 20.10. 10:00 89% 5.0 km
Sa, 20.10. 9:30 88% 16 km
Sa, 20.10. 9:00 89% 6 km
Ortszeit Niederschlagsmenge Niederschlagsart
Sa, 20.10. 8:00 0.0 l/m2 in 12 Std. -
Sa, 20.10. 2:00 0.0 l/m2 in 6 Std. -
Fr, 19.10. 20:00 0.0 l/m2 in 12 Std. -
Fr, 19.10. 14:00 0.0 l/m2 in 6 Std. -
Fr, 19.10. 8:00 0.1 l/m2 in 12 Std. -
Fr, 19.10. 2:00 0.1 l/m2 in 6 Std. Regen
Do, 18.10. 20:00 0.1 l/m2 in 12 Std. Sprühregen
Do, 18.10. 14:00 0.0 l/m2 in 6 Std. -
Ortszeit Niederschlagsmenge Niederschlagsart
Sa, 20.10. 12:00 0.0 l/m2 in 1 Std. -
Sa, 20.10. 11:50 keine Meldung -
Sa, 20.10. 11:40 keine Meldung -
Sa, 20.10. 11:30 0.0 l/m2 in 1 Std. -
Sa, 20.10. 11:20 keine Meldung -
Sa, 20.10. 11:10 keine Meldung -
Sa, 20.10. 11:00 0.0 l/m2 in 1 Std. -
Sa, 20.10. 10:30 0.0 l/m2 in 1 Std. -
Sa, 20.10. 10:00 0.0 l/m2 in 1 Std. -
Sa, 20.10. 9:30 0.0 l/m2 in 1 Std. -
Sa, 20.10. 9:00 0.0 l/m2 in 1 Std. -
Ortszeit Stärke Spitze Richtung
km/h Bft. km/h Grad Sektor
Sa, 20.10. 8:00 6 1 15 90° O
Sa, 20.10. 2:00 4 1 18 80° O
Fr, 19.10. 20:00 4 1 18 20° N
Fr, 19.10. 14:00 9 2 22 40° NO
Fr, 19.10. 8:00 11 2 25 80° O
Fr, 19.10. 2:00 11 2 29 50° NO
Do, 18.10. 20:00 13 3 28 40° NO
Do, 18.10. 14:00 13 3 26 30° NO
Ortszeit Stärke Spitze Richtung
km/h Bft. km/h Grad Sektor
Sa, 20.10. 12:00 6 1 15 30° NO
Sa, 20.10. 11:50 6 1 - 30° NO
Sa, 20.10. 11:40 11 2 - 40° NO
Sa, 20.10. 11:30 7 2 14 50° NO
Sa, 20.10. 11:20 7 2 - 50° NO
Sa, 20.10. 11:10 7 2 - 100° O
Sa, 20.10. 11:00 4 1 7 130° SO
Sa, 20.10. 10:30 0 0 4 - -
Sa, 20.10. 10:00 4 1 7 50° NO
Sa, 20.10. 9:30 4 1 4 30° NO
Sa, 20.10. 9:00 4 1 7 110° O
Ortszeit Untergrenze Bedeckung Gattung
total tief tief mittel hoch
Sa, 20.10. 8:00 7800 m 7/8 0/8 - - -
Sa, 20.10. 2:00 1140 m 1/8 1/8 - - -
Fr, 19.10. 20:00 1290 m 5/8 - - - -
Fr, 19.10. 14:00 1140 m 8/8 2/8 - - -
Fr, 19.10. 8:00 150 m 8/8 8/8 - - -
Fr, 19.10. 2:00 450 m 8/8 8/8 - - -
Do, 18.10. 20:00 240 m 7/8 7/8 - - -
Do, 18.10. 14:00 930 m 8/8 1/8 - - -
Ortszeit Bedeckungsgrad in Achtel und Wolkenuntergrenze
Sa, 20.10. 12:00 8
Sa, 20.10. 11:50 9 9 9
Sa, 20.10. 11:40 2(1020m) 7(6000m)
Sa, 20.10. 11:30 6(6300m) 8(6900m) 8(8400m)
Sa, 20.10. 11:20 6(6300m) 8(6900m) 8(8400m)
Sa, 20.10. 11:10 8(6600m) 8(8400m)
Sa, 20.10. 11:00 5(6600m) 8(7200m) 8(8700m)
Sa, 20.10. 10:30 1(1110m) 5(7500m)
Sa, 20.10. 10:00 6(7200m) 8(7800m)
Sa, 20.10. 9:30 8(6900m)
Sa, 20.10. 9:00 8(6900m)
Ortszeit Luftdruck NN (hPa) Tendenz (hPa in 3 Std.)
Sa, 20.10. 8:00 1030 + 1,4
Sa, 20.10. 2:00 1028 + 0,9
Fr, 19.10. 20:00 1025 + 1,3
Fr, 19.10. 14:00 1025 - 0,8
Fr, 19.10. 8:00 1025 + 0,3
Fr, 19.10. 2:00 1025 - 0,5
Do, 18.10. 20:00 1024 + 0,8
Do, 18.10. 14:00 1024 + 0,1
Ortszeit Luftdruck NN (hPa) Tendenz (hPa in 3 Std.)
Sa, 20.10. 12:00 1032 + 2,0
Sa, 20.10. 11:50 1032 keine Meldung
Sa, 20.10. 11:40 1032 keine Meldung
Sa, 20.10. 11:30 1032 + 1,7
Sa, 20.10. 11:20 1032 keine Meldung
Sa, 20.10. 11:10 1032 keine Meldung
Sa, 20.10. 11:00 1032 + 2,0
Sa, 20.10. 10:30 1032 + 2,1
Sa, 20.10. 10:00 1031 + 1,6
Sa, 20.10. 9:30 1031 + 1,7
Sa, 20.10. 9:00 1030 + 1,3
Ortszeit Schneehöhe (cm)
Sa, 20.10. 8:00 0
Sa, 20.10. 2:00 0
Fr, 19.10. 20:00 0
Fr, 19.10. 14:00 0
Fr, 19.10. 8:00 0
Fr, 19.10. 2:00 0
Do, 18.10. 20:00 0
Do, 18.10. 14:00 0
Ortszeit Schneehöhe (cm)
Sa, 20.10. 12:00 0
Sa, 20.10. 11:50 0
Sa, 20.10. 11:40 0
Sa, 20.10. 11:30 0
Sa, 20.10. 11:20 0
Sa, 20.10. 11:10 0
Sa, 20.10. 11:00 0
Sa, 20.10. 10:30 0
Sa, 20.10. 10:00 0
Sa, 20.10. 9:30 0
Sa, 20.10. 9:00 0
Link zu dieser Seite / Seite empfehlen

Das Wetter in ...